Franklin, PA

12:33 PM EST on November 22, 2019 (GMT -0500)
Venango Regional

Weather History for KFKL - June, 2019

Change the Weather History Date:

Tuesday, June 11, 2019

  Actual Average Record
Temperature  
Mean Temperature 58 °F -  
Max Temperature 70 °F 77 °F 95 °F (1933)
Min Temperature 48 °F 50 °F 35 °F (1972)
Degree Days  
Heating Degree Days 6    
Growing Degree Days 8 (Base 50)    
Moisture  
Dew Point 45 °F    
Average Humidity 63    
Maximum Humidity 96    
Minimum Humidity 36    
Precipitation  
Precipitation 0.00 in - - ()
Sea Level Pressure  
Sea Level Pressure 30.15 in    
Wind  
Wind Speed 7 mph (NW)    
Max Wind Speed 12 mph    
Max Gust Speed 17 mph    
Visibility 10 miles    
Events Rain    
Averages and records for this station are not official NWS values.
T = Trace of Precipitation, MM = Missing Value Source: NWS Daily Summary

Daily Weather History Graph

Daily Weather History Graph

Search for Another Location

Airport or City:

Astronomy

Jun. 11, 2019 Rise Set
Actual Time 5:45 AM EDT 8:52 PM EDT
Civil Twilight 5:11 AM EDT 9:26 PM EDT
Nautical Twilight 4:28 AM EDT 10:09 PM EDT
Astronomical Twilight 3:37 AM EDT 11:01 PM EDT
Moon 2:45 PM EDT (6/11) 2:33 AM EDT (6/11)
Length of Visible Light 16h 14m
Length of Day
15h 07m
Waxing Gibbous, 66% of the Moon is Illuminated
Jun 11
Waxing Gibbous
Jun 17
Full
Jun 25
Last Quarter
Jul 2
New
Jul 9
First Quarter

Hourly Weather History & Observations

Time (EDT) Temp. Dew Point Humidity Pressure Visibility Wind Dir Wind Speed Gust Speed Precip Events Conditions
12:47 AM 55.4 °F 51.8 °F 88% 30.07 in 10.0 mi Variable 6.9 mph - 0.00 in Rain Light Rain
12:56 AM 55.0 °F 51.1 °F 86% 30.06 in 10.0 mi NW 9.2 mph 16.1 mph 0.00 in   Overcast
1:56 AM 52.0 °F 48.9 °F 89% 30.08 in 10.0 mi WNW 4.6 mph - N/A   Mostly Cloudy
2:56 AM 51.1 °F 48.9 °F 92% 30.08 in 10.0 mi WNW 4.6 mph - N/A   Mostly Cloudy
3:56 AM 50.0 °F 48.9 °F 96% 30.10 in 10.0 mi West 6.9 mph - N/A   Clear
4:56 AM 50.0 °F 48.0 °F 93% 30.10 in 10.0 mi WNW 6.9 mph - N/A   Clear
5:56 AM 48.0 °F 46.9 °F 96% 30.12 in 10.0 mi WNW 6.9 mph - N/A   Clear
6:56 AM 50.0 °F 46.9 °F 89% 30.14 in 10.0 mi West 5.8 mph - N/A   Clear
7:56 AM 53.1 °F 46.9 °F 80% 30.17 in 10.0 mi NW 8.1 mph - N/A   Clear
8:56 AM 57.0 °F 46.9 °F 69% 30.18 in 10.0 mi Variable 6.9 mph - N/A   Clear
9:56 AM 61.0 °F 46.9 °F 60% 30.19 in 10.0 mi Variable 6.9 mph - N/A   Clear
10:56 AM 63.0 °F 45.0 °F 52% 30.19 in 10.0 mi NW 9.2 mph 17.3 mph N/A   Clear
11:56 AM 64.9 °F 46.0 °F 50% 30.20 in 10.0 mi NW 8.1 mph - N/A   Clear
12:56 PM 66.9 °F 45.0 °F 45% 30.19 in 10.0 mi WNW 11.5 mph 17.3 mph N/A   Clear
1:56 PM 66.9 °F 45.0 °F 45% 30.19 in 10.0 mi WNW 11.5 mph 17.3 mph N/A   Scattered Clouds
2:56 PM 69.1 °F 45.0 °F 42% 30.19 in 10.0 mi NW 8.1 mph - N/A   Clear
3:56 PM 69.1 °F 44.1 °F 40% 30.19 in 10.0 mi WNW 9.2 mph 17.3 mph N/A   Clear
4:56 PM 69.1 °F 41.0 °F 36% 30.17 in 10.0 mi Variable 6.9 mph 17.3 mph N/A   Clear
5:56 PM 68.0 °F 41.0 °F 37% 30.17 in 10.0 mi Variable 4.6 mph - N/A   Clear
6:56 PM 66.0 °F 41.0 °F 40% 30.16 in 10.0 mi North 9.2 mph - N/A   Clear
7:11 PM 66.2 °F 41.0 °F 40% 30.16 in 8.0 mi Variable 4.6 mph - N/A   Partly Cloudy
7:56 PM 64.0 °F 39.9 °F 41% 30.16 in 10.0 mi Variable 4.6 mph - N/A   Clear
8:56 PM 61.0 °F 42.1 °F 50% 30.17 in 10.0 mi Calm Calm - N/A   Clear
9:56 PM 59.0 °F 41.0 °F 51% 30.18 in 10.0 mi Calm Calm - N/A   Clear
10:56 PM 53.1 °F 42.1 °F 66% 30.19 in 10.0 mi Calm Calm - N/A   Clear
11:56 PM 50.0 °F 43.0 °F 77% 30.19 in 10.0 mi Calm Calm - N/A   Clear